Date String (YYYY-MM-DD hh:mm:ss) UTC,Instrument flags,absolute air pressure of the measurement (hPa),sample flow rate (lpm),inlet stack bypass flow (lpm),air temperature of the measurement (°C),ambient temperature measured by the external sensor (°C),aerosol sample conditioner tube jacket temperature (°C),OPC LED temperature (°C),internal box temperature (°C),relative humidity of the measurement (%),span deviation,mass concentration of particles derived from Lorenz-Mie calculation of OPC scattering (μg/m³),mass concentration of particles derived from Lorenz-Mie calculation of OPC scattering (μg/m³),mass concentration of particles derived from Lorenz-Mie calculation of OPC scattering (μg/m³)
DateTimeUTC,F1_M11,P_M11,Q1_M11,Q2_M11,T1_M11,T2_M11,T3_M11,T4_M11,T5_M11,U1_M11,ZSPAN_M11,X2_M11,X0_M11,X1_M11
2023-10-09 06:00:00,SystemResetWarning,0831.4,4.99,000.00,028.6,027.1,000.0,037.0,030.2,12.6,0000.0,0003.26,0008.60,0002.30
2023-10-09 06:01:00,SystemResetWarning,0831.4,5.00,000.00,028.6,027.2,000.0,037.0,030.2,12.6,0000.0,0003.27,0009.40,0002.30
2023-10-09 06:02:00,SystemResetWarning,0831.4,5.00,000.00,028.6,027.2,000.0,037.0,030.2,12.6,0000.0,0003.25,0009.77,0002.29
2023-10-09 06:03:00,SystemResetWarning,0831.4,5.00,000.00,028.6,027.2,000.0,037.0,030.3,12.6,0000.0,0003.24,0009.73,0002.28
2023-10-09 06:04:00,SystemResetWarning,0831.4,5.00,000.00,028.6,027.2,000.0,037.1,030.3,12.6,0000.0,0003.21,0010.42,0002.27
2023-10-09 06:05:00,SystemResetWarning,0831.4,5.01,000.00,028.6,027.3,000.0,037.1,030.3,12.5,0000.0,0003.21,0010.07,0002.26
2023-10-09 06:06:00,SystemResetWarning,0831.5,5.00,000.00,028.7,027.3,000.0,037.1,030.3,12.5,0000.0,0003.24,0010.20,0002.26
2023-10-09 06:07:00,SystemResetWarning,0831.4,5.00,000.00,028.7,027.3,000.0,037.1,030.3,12.5,0000.0,0003.25,0010.85,0002.26
2023-10-09 06:08:00,SystemResetWarning,0831.4,4.99,000.00,028.7,027.3,000.0,037.1,030.3,12.5,0000.0,0003.21,0010.79,0002.26
2023-10-09 06:09:00,SystemResetWarning,0831.4,5.00,000.00,028.7,027.3,000.0,037.1,030.3,12.5,0000.0,0003.18,0010.98,0002.25
2023-10-09 06:10:00,SystemResetWarning,0831.4,4.99,000.00,028.7,027.3,000.0,037.1,030.4,12.5,0000.0,0003.17,0010.98,0002.25
2023-10-09 06:11:00,SystemResetWarning,0831.4,4.99,000.00,028.7,027.3,000.0,037.1,030.4,12.5,0000.0,0003.15,0010.62,0002.27
2023-10-09 06:12:00,SystemResetWarning,0831.4,5.00,000.00,028.7,027.4,000.0,037.1,030.4,12.5,0000.0,0003.16,0009.81,0002.28
2023-10-09 06:13:00,SystemResetWarning,0831.4,5.00,000.00,028.8,027.4,000.0,037.2,030.4,12.5,0000.0,0003.17,0009.62,0002.28
2023-10-09 06:14:00,SystemResetWarning,0831.4,5.01,000.00,028.8,027.4,000.0,037.2,030.4,12.5,0000.0,0003.20,0009.61,0002.29
2023-10-09 06:15:00,SystemResetWarning,0831.4,5.01,000.00,028.8,027.4,000.0,037.2,030.4,12.5,0000.0,0003.24,0009.18,0002.29
2023-10-09 06:16:00,SystemResetWarning,0831.4,5.00,000.00,028.8,027.4,000.0,037.2,030.4,12.5,0000.0,0003.25,0009.12,0002.30
2023-10-09 06:17:00,SystemResetWarning,0831.3,5.00,000.00,028.8,027.4,000.0,037.2,030.4,12.5,0000.0,0003.25,0009.24,0002.31
2023-10-09 06:18:00,SystemResetWarning,0831.4,5.00,000.00,028.8,027.4,000.0,037.2,030.4,12.4,0000.0,0003.22,0008.28,0002.30
2023-10-09 06:19:00,SystemResetWarning,0831.4,4.99,000.00,028.8,027.4,000.0,037.2,030.4,12.5,0000.0,0003.26,0008.54,0002.32
2023-10-09 06:20:00,SystemResetWarning,0831.3,4.99,000.00,028.8,027.4,000.0,037.2,030.4,12.4,0000.0,0003.26,0008.22,0002.32
2023-10-09 06:21:00,SystemResetWarning,0831.3,5.00,000.00,028.8,027.4,000.0,037.2,030.4,12.4,0000.0,0003.22,0007.98,0002.31
2023-10-09 06:22:00,SystemResetWarning,0831.3,5.00,000.00,028.8,027.4,000.0,037.2,030.4,12.4,0000.0,0003.19,0008.30,0002.29
2023-10-09 06:23:00,SystemResetWarning,0831.3,5.00,000.00,028.8,027.4,000.0,037.3,030.4,12.4,0000.0,0003.16,0008.23,0002.27
2023-10-09 06:24:00,SystemResetWarning,0831.3,5.01,000.00,028.9,027.4,000.0,037.3,030.5,12.4,0000.0,0003.14,0007.94,0002.26
2023-10-09 06:25:00,SystemResetWarning,0831.4,5.00,000.00,028.9,027.4,000.0,037.3,030.5,12.4,0000.0,0003.16,0007.81,0002.26
2023-10-09 06:26:00,SystemResetWarning,0831.4,5.01,000.00,028.9,027.5,000.0,037.3,030.5,12.4,0000.0,0003.15,0007.72,0002.26
2023-10-09 06:27:00,SystemResetWarning,0831.4,5.00,000.00,028.9,027.5,000.0,037.3,030.5,12.4,0000.0,0003.13,0007.47,0002.24
2023-10-09 06:28:00,SystemResetWarning,0831.3,4.99,000.00,028.9,027.5,000.0,037.3,030.5,12.4,0000.0,0003.12,0007.26,0002.24
2023-10-09 06:29:00,SystemResetWarning,0831.3,4.99,000.00,028.9,027.5,000.0,037.3,030.5,12.4,0000.0,0003.14,0007.32,0002.23
2023-10-09 06:30:00,SystemResetWarning,0831.3,5.00,000.00,028.9,027.5,000.0,037.3,030.5,12.4,0000.0,0003.10,0006.67,0002.21
2023-10-09 06:31:00,SystemResetWarning,0831.4,5.00,000.00,028.9,027.5,000.0,037.3,030.5,12.4,0000.0,0003.12,0006.73,0002.20
2023-10-09 06:32:00,SystemResetWarning,0831.3,5.01,000.00,028.9,027.5,000.0,037.3,030.5,12.4,0000.0,0003.13,0006.75,0002.20
2023-10-09 06:33:00,SystemResetWarning,0831.3,5.00,000.00,028.9,027.5,000.0,037.3,030.5,12.4,0000.0,0003.12,0006.00,0002.19
2023-10-09 06:34:00,SystemResetWarning,0831.3,5.00,000.00,028.9,027.5,000.0,037.3,030.5,12.4,0000.0,0003.13,0006.91,0002.19
2023-10-09 06:35:00,SystemResetWarning,0831.3,5.00,000.00,028.9,027.5,000.0,037.3,030.5,12.4,0000.0,0003.11,0007.17,0002.19
2023-10-09 06:36:00,SystemResetWarning,0831.3,5.00,000.00,028.9,027.5,000.0,037.3,030.5,12.4,0000.0,0003.12,0007.98,0002.19
2023-10-09 06:37:00,SystemResetWarning,0831.3,5.00,000.00,028.9,027.5,000.0,037.4,030.5,12.4,0000.0,0003.16,0008.31,0002.20
2023-10-09 06:38:00,SystemResetWarning,0831.3,4.99,000.00,028.9,027.5,000.0,037.4,030.5,12.4,0000.0,0003.17,0008.44,0002.20
2023-10-09 06:39:00,SystemResetWarning,0831.3,5.00,000.00,028.9,027.5,000.0,037.3,030.5,12.4,0000.0,0003.15,0008.48,0002.19
2023-10-09 06:40:00,SystemResetWarning,0831.3,5.00,000.00,028.9,027.5,000.0,037.3,030.5,12.4,0000.0,0003.12,0008.39,0002.17
2023-10-09 06:41:00,SystemResetWarning,0831.3,5.01,000.00,028.9,027.5,000.0,037.4,030.5,12.4,0000.0,0003.13,0008.40,0002.17
2023-10-09 06:42:00,SystemResetWarning,0831.3,5.01,000.00,028.9,027.5,000.0,037.3,030.5,12.4,0000.0,0003.13,0008.69,0002.17
2023-10-09 06:43:00,SystemResetWarning,0831.3,5.00,000.00,028.9,027.5,000.0,037.4,030.5,12.4,0000.0,0003.15,0009.51,0002.18
2023-10-09 06:44:00,SystemResetWarning,0831.3,4.99,000.00,028.9,027.5,000.0,037.4,030.5,12.4,0000.0,0003.20,0010.22,0002.18
2023-10-09 06:45:00,SystemResetWarning,0831.3,4.99,000.00,028.9,027.5,000.0,037.4,030.5,12.4,0000.0,0003.22,0009.81,0002.18
2023-10-09 06:46:00,SystemResetWarning,0831.3,4.99,000.00,028.9,027.5,000.0,037.4,030.5,12.4,0000.0,0003.27,0009.84,0002.15
2023-10-09 06:47:00,SystemResetWarning,0831.3,5.01,000.00,029.0,027.5,000.0,037.4,030.5,12.4,0000.0,0003.25,0009.12,0002.15
2023-10-09 06:48:00,SystemResetWarning,0831.3,5.01,000.00,029.0,027.5,000.0,037.4,030.5,12.4,0000.0,0003.22,0008.97,0002.15
2023-10-09 06:49:00,SystemResetWarning,0831.3,5.01,000.00,029.0,027.5,000.0,037.4,030.5,12.4,0000.0,0003.18,0009.29,0002.15
2023-10-09 06:50:00,SystemResetWarning,0831.3,5.00,000.00,029.0,027.5,000.0,037.4,030.5,12.4,0000.0,0003.21,0009.22,0002.16
2023-10-09 06:51:00,SystemResetWarning,0831.3,5.00,000.00,029.0,027.5,000.0,037.4,030.5,12.4,0000.0,0003.23,0009.44,0002.18
2023-10-09 06:52:00,SystemResetWarning,0831.3,5.00,000.00,029.0,027.5,000.0,037.4,030.5,12.4,0000.0,0003.22,0009.55,0002.17
2023-10-09 06:53:00,SystemResetWarning,0831.3,5.00,000.00,029.0,027.5,000.0,037.4,030.5,12.4,0000.0,0003.25,0009.62,0002.18
2023-10-09 06:54:00,SystemResetWarning,0831.3,5.00,000.00,029.0,027.5,000.0,037.4,030.5,12.4,0000.0,0003.27,0008.89,0002.19
2023-10-09 06:55:00,SystemResetWarning,0831.3,4.99,000.00,029.0,027.5,000.0,037.4,030.5,12.4,0000.0,0003.25,0008.07,0002.19
2023-10-09 06:56:00,SystemResetWarning,0831.3,5.00,000.00,029.0,027.5,000.0,037.4,030.5,12.3,0000.0,0003.25,0007.95,0002.19
2023-10-09 06:57:00,SystemResetWarning,0831.3,5.00,000.00,029.0,027.5,000.0,037.4,030.5,12.4,0000.0,0003.21,0007.93,0002.22
2023-10-09 06:58:00,SystemResetWarning,0831.3,5.00,000.00,029.0,027.5,000.0,037.4,030.6,12.4,0000.0,0003.22,0007.98,0002.23
2023-10-09 06:59:00,SystemResetWarning,0831.3,5.01,000.00,029.0,027.5,000.0,037.4,030.5,12.4,0000.0,0003.19,0007.99,0002.23
